Current Weather Conditions: station LICL

sailwx.info

See reports from other nearby stations

no recent reports received from weather station ID LICL

Tides Pressure Air temp Water temp Dewpoint Dewpoint depression Visibility Wind speed Wind direction Waves Ship positions
date/time (UTC)wind fromknots sea level pressurealtimeterstation pressurevisibilityair tempwater tempwave heightnotes
2014-Jul-28 17:55 350 2 25.0
2014-Jul-28 16:55 130 8 26.0
2014-Jul-28 15:55 260 10 26.0
2014-Jul-28 14:55 270 13 26.0
2014-Jul-28 13:55 240 9 gusting 19 26.0
2014-Jul-28 12:55 030 9 gusting 20 26.0
2014-Jul-28 11:55 230 9 26.0
2014-Jul-28 10:55 240 8 26.0
2014-Jul-28 09:55 260 11 26.0
2014-Jul-28 08:55 230 5 25.0
2014-Jul-28 07:55 130 3 25.0
2014-Jul-28 06:55 230 4 24.0
2014-Jul-28 05:55 050 2 24.0
2014-Jul-28 04:55 040 1 23.0
2014-Jul-27 17:55 280 13 27.0
2014-Jul-27 16:55 270 15 gusting 25 27.0
2014-Jul-27 15:55 270 15 gusting 26 27.0
2014-Jul-27 14:55 260 15 gusting 27 27.0
2014-Jul-27 13:55 260 14 gusting 25 27.0
2014-Jul-27 12:55 270 13 27.0
2014-Jul-27 11:55 260 11 27.0
2014-Jul-27 10:55 260 9 26.0
2014-Jul-27 09:55 240 8 26.0
2014-Jul-27 08:55 250 7 26.0
2014-Jul-27 07:55 240 5 4.926.0
2014-Jul-27 06:55 240 2 26.0
2014-Jul-27 05:55 25.0
2014-Jul-27 04:55 4.325.0